SENTINEL-5P (42969 NORAD) Tracking and Keplerian Element Data

This shows tracking and keplerian element data for the satellite.

Feedback or suggestion? Click here.




ElementValue
Catalog42969
NameSENTINEL-5P
Epoch Orbit21485
Epoch Day339.85146996
Epoch Year2021
RAAN277.514
Inclination98.7123
Eccentricity0.0001162
Argument of Perigee87.9004
Mean Anonmoly272.2305
Mean Motion14.19541323
Decay Rate-1E-08
L11 42969U 17064A 21339.85146996 -.00000001 00000+0 20005-4 0 9996
L22 42969 98.7123 277.5140 0001162 87.9004 272.2305 14.19541323214850

Live tracking and technical data element details for SENTINEL-5P (NORAD 42969). SENTINEL-5P can be tracked NOW for your location showing map with azimuth and elevation plus other details from your city location.

Track the satellite on the map from your city or location and see movement details for azimuth, elevation, latitude, longitude, range, height, and movement on the map or in text.







IsCatalogInMostPopularTable: catalog: 42969, numindb: 959
Update: records affected: 1



GetName: 42969 SENTINEL-5P

Hit Count: updated at: Wed, 08 Dec 2021 16:10:37 GMT